Track LEMUR 2 JINDRA now! 10-day predictions LEMUR 2 JINDRA is classified as:
1 46909U 20081E 22182.57977916 .00004211 00000-0 31806-3 0 9994 2 46909 36.9086 139.4292 0007098 203.0041 157.0372 15.02327342 90313